metlocid,date_time,avg_airt3asp,std_airt3asp,min_airt3asp,max_airt3asp,n_airt3asp,n_comments
CAAM,11/30/07,-5.219032288,1.484527611,-8.74,-3.5,31,2
CAAM,12/1/07,-8.733645817,2.059343861,-12.17,-6.23,96,0
CAAM,12/2/07,-6.799270819,1.25915613,-8.91,-4.53,96,0
CAAM,12/3/07,-8.965833356,0.49462088,-9.88,-7.63,96,0
CAAM,12/4/07,-7.416458294,1.421973397,-10.1,-5.48,96,0
CAAM,12/5/07,-8.700104127,0.67103294,-10.36,-7.5,96,0
CAAM,12/6/07,-9.901666651,0.749733466,-11.21,-8.6,96,0
CAAM,12/7/07,-7.078333328,1.907611717,-11.35,-4.72,96,0
CAAM,12/8/07,-4.512083329,1.477911694,-8.07,-2.18,96,0
CAAM,12/9/07,-3.717604162,1.629829655,-6.14,-0.4,96,0
CAAM,12/10/07,-4.256666663,0.912378796,-5.74,-2.85,96,0
CAAM,12/11/07,-3.82447917,0.680700677,-5.27,-2.55,96,0
CAAM,12/12/07,-1.336250005,1.726103159,-4.93,1.18,96,0
CAAM,12/13/07,-0.540625002,1.233653376,-3.52,1.55,96,0
CAAM,12/14/07,1.172291662,1.326636007,-1.01,4,96,0
CAAM,12/15/07,2.238958338,1.28895346,-1.05,4.36,96,0
CAAM,12/16/07,0.586666673,0.925987006,-1.04,2.92,96,0
CAAM,12/17/07,1.38177083,1.055251519,-0.66,3.48,96,0
CAAM,12/18/07,-1.021666664,1.107992656,-3.66,1.21,96,0
CAAM,12/19/07,-1.925937503,1.493234273,-4.82,0.28,96,0
CAAM,12/20/07,-0.295729168,1.697963331,-2.71,2.01,96,0
CAAM,12/21/07,-0.372291666,0.816215247,-1.73,1.6,96,0
CAAM,12/22/07,-3.407708314,0.93557689,-5.04,-0.9,96,0
CAAM,12/23/07,-0.28979167,2.276697972,-4.01,2.3,96,0
CAAM,12/24/07,-0.236354165,0.702052809,-2.28,1.27,96,0
CAAM,12/25/07,-2.792604173,0.5907894,-3.9,-1.79,96,0
CAAM,12/26/07,-4.778541677,0.879973686,-5.89,-3.23,96,0
CAAM,12/27/07,-6.235520825,0.388367374,-6.88,-5.6,96,0
CAAM,12/28/07,-3.985624999,1.465152282,-6.18,-1.98,96,0
CAAM,12/29/07,-3.432812503,0.712427594,-4.75,-1.81,96,0
CAAM,12/30/07,-2.736562478,1.043670464,-4.34,-1.26,96,0
CAAM,12/31/07,-4.627812512,0.965049462,-6.02,-2.85,96,0
CAAM,1/1/08,-5.946354146,0.499353525,-6.77,-4.99,96,0
CAAM,1/2/08,-5.527916687,1.388941202,-7.7,-3.43,96,0
CAAM,1/3/08,-3.866458356,1.264409151,-6.44,-2.02,96,0
CAAM,1/4/08,-3.281145837,1.040381376,-5.48,-0.03,96,0
CAAM,1/5/08,-5.656041667,0.387237132,-6.49,-4.9,96,0
CAAM,1/6/08,-3.157083322,1.787202393,-6.05,0.18,96,0
CAAM,1/7/08,-4.012604179,0.593101123,-5.33,-2.92,96,0
CAAM,1/8/08,-2.400208324,0.729440989,-3.73,-0.77,96,0
CAAM,1/9/08,-1.919374999,0.675419266,-2.88,0.04,96,0
CAAM,1/10/08,-0.832291662,0.989292655,-2.56,1.39,96,0
CAAM,1/11/08,-0.489374999,0.75011271,-1.83,1.31,96,0
CAAM,1/12/08,-1.41239583,0.745816042,-2.93,0.74,96,0
CAAM,1/13/08,-2.649433961,0.757634015,-3.93,-0.78,53,2
CAAM,1/14/08,-2.274479163,1.041750414,-4.17,0.15,96,0
CAAM,1/15/08,-2.233750005,0.806418003,-3.79,-0.54,96,0
CAAM,1/16/08,-1.490729171,1.184149032,-4,0.68,96,0
CAAM,1/17/08,0.670729167,0.876990357,-2.05,2.12,96,0
CAAM,1/18/08,0.938493148,1.124519238,-0.73,2.61,73,1
CAAM,1/19/08,-0.516041668,1.119129809,-2.58,1.51,96,0
CAAM,1/20/08,-0.953229168,0.974270571,-3.1,0.38,96,0
CAAM,1/21/08,-2.265833333,1.124636709,-4.12,-0.15,96,0
CAAM,1/22/08,-3.142395848,1.015524509,-5.08,-0.82,96,0
CAAM,1/23/08,-3.482916662,0.553145868,-4.3,-1.88,96,0
CAAM,1/24/08,-4.369166662,1.118309494,-6.37,-0.93,96,0
CAAM,1/25/08,-3.545833345,1.250640814,-5.81,-0.05,96,0
CAAM,1/26/08,-4.54378948,1.028909967,-6.5,-2.45,95,0
CAAM,1/27/08,-5.537187502,0.53570751,-6.77,-4.47,96,0
CAAM,1/28/08,-6.602187499,0.515352091,-7.62,-5.59,96,0
CAAM,1/29/08,-6.100208347,1.173836743,-8.17,-3.98,96,0
CAAM,1/30/08,-5.789479171,0.932415504,-7.5,-4.02,96,0
CAAM,1/31/08,-6.941250011,0.684674727,-8.97,-5.92,96,0
CAAM,2/1/08,-8.972916633,1.03623801,-10.54,-7.16,96,0
CAAM,2/2/08,-8.798750013,0.38888578,-9.85,-7.95,96,0
CAAM,2/3/08,-8.292812442,0.625203468,-9.93,-7.55,96,0
CAAM,2/4/08,-7.281562527,1.336507879,-9.59,-4.71,96,0
CAAM,2/5/08,-7.578750029,0.935976024,-9.25,-4.97,96,0
CAAM,2/6/08,-9.006250004,0.745705181,-10.45,-7.57,96,0
CAAM,2/7/08,-10.75937496,1.135207656,-12.92,-8.18,96,0
CAAM,2/8/08,-12.05364582,1.036822174,-14.24,-10.79,96,0
CAAM,2/9/08,-11.28239579,1.065041416,-13.51,-9.11,96,0
CAAM,2/10/08,-14.6033333,0.857359029,-16.08,-13.3,96,0
CAAM,2/11/08,-14.53333336,1.554596366,-17.58,-12.29,96,0
CAAM,2/12/08,-14.97312502,1.098763192,-16.91,-12.55,96,0
CAAM,2/13/08,-15.48927079,1.471140775,-17.78,-13.27,96,0
CAAM,2/14/08,-14.25437497,1.495657447,-16.68,-11.9,96,0
CAAM,2/15/08,-13.46281256,1.295671846,-16.24,-10.83,96,0
CAAM,2/16/08,-15.61947918,1.634023344,-18.45,-12.47,96,0
CAAM,2/17/08,-14.55687499,1.332306476,-16.97,-12.49,96,0
CAAM,2/18/08,-11.99135416,1.600228057,-14.05,-9.19,96,0
CAAM,2/19/08,-12.21770836,1.194368803,-15.31,-10.15,96,0
CAAM,2/20/08,-14.926,1.580156445,-17.56,-12.57,95,0
CAAM,11/4/08,-18.40111104,0.6340487,-19.41,-17.27,27,0
CAAM,11/5/08,-16.50125002,2.145969222,-20.15,-12.67,96,0
CAAM,11/6/08,-14.6059375,1.528807996,-17.29,-11.96,96,0
CAAM,11/7/08,-11.01583335,2.104462785,-15.02,-7.17,96,0
CAAM,11/8/08,-9.390208373,1.21858155,-11.88,-7.05,96,0
CAAM,11/9/08,-11.94156249,1.338078196,-14.73,-8.33,96,0
CAAM,11/10/08,-9.306562513,2.243195045,-14.35,-5.48,96,0
CAAM,11/11/08,-12.71104171,1.954929248,-16.54,-6.97,96,0
CAAM,11/12/08,-13.65572912,1.84951642,-17.4,-10.69,96,0
CAAM,11/13/08,-15.66895829,1.623410567,-18.58,-13.61,96,0
CAAM,11/14/08,-11.07749995,3.078254099,-16.63,-6.49,96,0
CAAM,11/15/08,-10.32885416,1.960613164,-13.71,-7.54,96,0
CAAM,11/16/08,-10.36104167,1.836666587,-14.46,-7.62,96,0
CAAM,11/17/08,-11.60416669,0.812413772,-13.07,-10.25,96,0
CAAM,11/18/08,-10.30895836,1.053516883,-11.91,-8,96,0
CAAM,11/19/08,-9.703333313,1.211617178,-12.25,-7.91,96,0
CAAM,11/20/08,-7.279374977,1.839198782,-10.75,-3.72,96,0
CAAM,11/21/08,-8.216875002,1.485260441,-11.83,-4.95,96,0
CAAM,11/22/08,-11.87333332,0.494152454,-13.01,-10.91,96,0
CAAM,11/23/08,-10.54124998,1.115945894,-12.22,-9,96,0
CAAM,11/24/08,-9.71593752,1.094689165,-12.04,-7.94,96,0
CAAM,11/25/08,-6.72770834,1.122823045,-9.12,-4.75,96,0
CAAM,11/26/08,-7.930937529,1.146301226,-9.56,-5.86,96,0
CAAM,11/27/08,-11.13291664,1.3459537,-13.09,-7.36,96,0
CAAM,11/28/08,-4.952187491,4.042368298,-11.61,-1.26,96,0
CAAM,11/29/08,-3.418958326,2.019121474,-7.59,-1.06,96,0
CAAM,11/30/08,-5.303125014,1.44942915,-7.95,-2.74,96,0
CAAM,12/1/08,-3.66916668,1.023984669,-6.12,-1.89,96,0
CAAM,12/2/08,-5.566041656,1.566595045,-8.59,-3.65,96,0
CAAM,12/3/08,-5.78010418,1.345915852,-9.19,-4.05,96,0
CAAM,12/4/08,-7.927500015,0.962124868,-9.27,-6.52,96,0
CAAM,12/5/08,-6.805624987,0.579500346,-7.87,-5.54,96,0
CAAM,12/6/08,-5.921458314,1.251373985,-8.03,-4.37,96,0
CAAM,12/7/08,-5.558229148,0.992589383,-6.99,-3.57,96,0
CAAM,12/8/08,-2.90895832,0.880330638,-4.43,-1,96,0
CAAM,12/9/08,-2.422604169,0.959412376,-4.33,-0.49,96,0
CAAM,12/10/08,-3.853541685,0.711953559,-5.11,-2.59,96,0
CAAM,12/11/08,-2.980729183,1.29566343,-5.1,-0.83,96,0
CAAM,12/12/08,-3.422916681,0.945797285,-4.84,-1.18,96,0
CAAM,12/13/08,-3.01010416,1.138841035,-4.92,-0.89,96,0
CAAM,12/14/08,-3.031249994,0.794183101,-5.74,-1.93,96,0
CAAM,12/15/08,-6.693437507,1.357064094,-10.14,-4.78,96,0
CAAM,12/16/08,-7.53854166,2.21816237,-10.34,-4.35,96,0
CAAM,12/17/08,-3.940000013,2.072211133,-6.9,-0.91,96,0
CAAM,12/18/08,-2.364895842,1.191882196,-4.16,0.25,96,0
CAAM,12/19/08,-1.302500008,1.06471742,-3.19,0.67,96,0
CAAM,12/20/08,-2.919999992,1.01087872,-4.87,-1.33,96,0
CAAM,12/21/08,-2.047812497,0.84418033,-3.5,-0.38,96,0
CAAM,12/22/08,-2.681145837,0.569706984,-3.87,-1.73,96,0
CAAM,12/23/08,-1.399895837,1.396347492,-3.67,0.77,96,0
CAAM,12/24/08,-1.3709375,1.085142803,-3.81,0.71,96,0
CAAM,12/25/08,-1.142083329,1.301774429,-2.81,2.18,96,0
CAAM,12/26/08,0.451249998,1.107386917,-0.97,2.86,96,0
CAAM,12/27/08,0.594583334,1.443565699,-1.62,2.89,96,0
CAAM,12/28/08,-1.626979166,0.945370008,-3.11,1.24,96,0
CAAM,12/29/08,-2.08770834,0.861319044,-3.51,-0.56,96,0
CAAM,12/30/08,-0.245520837,2.38784371,-3.23,3.31,96,0
CAAM,12/31/08,-1.163020829,0.895214311,-3.37,0.58,96,0
CAAM,1/1/09,-2.561458345,1.755889934,-5.09,0.15,96,0
CAAM,1/2/09,-0.425208335,0.793454777,-2.26,1.26,96,0
CAAM,1/3/09,-2.921145833,0.758263778,-3.92,-0.67,96,0
CAAM,1/4/09,-2.236041673,1.451820267,-4.54,-0.01,96,0
CAAM,1/5/09,-2.721250003,2.129650953,-6.2,0.3,96,0
CAAM,1/6/09,-0.519374996,0.550402358,-1.64,0.49,96,0
CAAM,1/7/09,-1.790666666,0.900152516,-3.8,0.16,45,0
CAAM,1/21/09,-6.834347812,0.966355459,-7.61,-0.91,46,0
CAAM,1/22/09,-4.249375016,2.365093905,-7.87,-0.42,96,0
CAAM,1/23/09,-1.350312496,0.979366555,-3.63,0.67,96,0
CAAM,1/24/09,-3.211250001,0.799252612,-4.79,-0.68,96,0
CAAM,1/25/09,-1.979062496,1.197935998,-4.47,0.65,96,0
CAAM,1/26/09,-3.635937512,0.977226575,-5.36,-1.76,96,0
CAAM,1/27/09,-4.591458345,1.160255861,-6.51,-1.29,96,0
CAAM,1/28/09,-4.796770828,1.181471423,-6.52,-2.06,96,0
CAAM,1/29/09,-4.347187494,0.773389951,-6.38,-3.02,96,0
CAAM,1/30/09,-5.783854177,0.710041282,-7.65,-4.29,96,0
CAAM,1/31/09,-7.124374976,1.117296408,-8.83,-5.04,96,0
CAAM,2/1/09,-7.354583328,1.815942758,-9.76,-4.69,96,0
CAAM,2/2/09,-5.654791688,1.112031798,-7.46,-2.2,96,0
CAAM,2/3/09,-5.761666658,1.093417302,-8.12,-3.8,96,0
CAAM,2/4/09,-4.62541669,1.34524578,-7.15,-1.61,96,0
CAAM,2/5/09,-4.440208351,1.036737782,-6.45,-2.89,96,0
CAAM,2/6/09,-6.165625006,0.855088567,-7.86,-4.52,96,0
CAAM,2/7/09,-8.56645832,0.405989307,-9.31,-7.2,96,0
CAAM,2/8/09,-8.372500002,0.644969208,-10.43,-7.3,96,0
CAAM,2/9/09,-9.02458334,0.749021684,-10.24,-6.52,96,0
CAAM,2/10/09,-9.214062442,1.099929786,-10.76,-7.6,96,0
CAAM,2/11/09,-8.353750025,1.057193167,-10.34,-6.44,96,0
CAAM,2/12/09,-9.423229178,1.341058899,-11.83,-6.22,96,0
CAAM,2/13/09,-12.97041667,0.601361457,-14.3,-11.72,96,0
CAAM,2/14/09,-14.50687496,0.411933404,-15.42,-13.87,96,0
CAAM,2/15/09,-13.54625001,1.270583174,-15.76,-10.8,96,0
CAAM,2/16/09,-13.03635413,0.943491949,-14.46,-11.52,96,0
CAAM,2/17/09,-12.73770832,1.035311792,-14.58,-9.19,96,0
CAAM,2/18/09,-17.14281252,1.320435843,-20.12,-13.66,96,0
CAAM,2/19/09,-17.9932291,1.100356233,-20.55,-14.67,96,0
CAAM,2/20/09,-18.4159374,1.181698634,-20.8,-16.38,96,0
CAAM,2/21/09,-18.1240625,1.454880343,-21.14,-14.82,96,0
CAAM,2/22/09,-18.61812502,0.655410484,-20.28,-16.47,96,0
CAAM,2/23/09,-18.67562499,0.792458914,-20.89,-16.94,96,0
CAAM,2/24/09,-17.92635418,2.017104707,-22.82,-14.47,96,0
CAAM,2/25/09,-21.12635416,1.443848801,-23.8,-17.34,96,0
CAAM,2/26/09,-18.0851041,2.485886037,-23.75,-13.48,96,0
CAAM,2/27/09,-13.15729168,2.351783402,-17.35,-8.54,96,0
CAAM,2/28/09,-13.668125,0.928324261,-16.17,-11.3,96,0
CAAM,3/1/09,-11.60656251,2.860092351,-16.12,-6.8,96,0
CAAM,3/2/09,-10.16843749,1.988397065,-13.98,-7.43,96,0
CAAM,3/3/09,-13.05458332,0.44990279,-14,-11.24,96,0
CAAM,3/4/09,-16.08572912,1.468902774,-18.94,-13.74,96,0
CAAM,3/5/09,-17.11208333,1.170477919,-19.8,-15.15,96,0
CAAM,3/6/09,-17.16833334,0.775002379,-18.6,-15.49,96,0
CAAM,3/7/09,-16.27135426,0.722591305,-17.53,-14.42,96,0
CAAM,3/8/09,-15.89145831,0.818919634,-17.63,-14.18,96,0
CAAM,3/9/09,-16.80302089,0.962325188,-19.16,-15.21,96,0
CAAM,3/10/09,-17.31729165,0.493397376,-18.67,-15.91,96,0
CAAM,3/11/09,-19.94343744,1.375381209,-22,-16.69,96,0
CAAM,3/12/09,-21.38031248,0.864071674,-23.31,-19.51,96,0
CAAM,3/13/09,-19.16020825,1.292637398,-22.3,-13.54,96,0
CAAM,3/14/09,-20.00406245,1.244427215,-23.43,-18.33,96,0
CAAM,3/15/09,-23.09322912,0.812106458,-25.14,-21.73,96,0
CAAM,3/16/09,-25.28604172,0.850210524,-27.36,-23.51,96,0
CAAM,3/17/09,-25.54208332,1.001125579,-27.71,-23.12,96,0
CAAM,3/18/09,-26.05624994,0.882184115,-28.18,-24.38,96,0
CAAM,3/19/09,-22.63510408,1.108763174,-24.59,-20.9,96,0
CAAM,3/20/09,-22.22375007,0.843595351,-24.63,-20.7,96,0
CAAM,3/21/09,-22.83656259,0.578403991,-24.92,-21.68,96,0
CAAM,3/22/09,-23.90843745,0.847778973,-26.24,-21.69,96,0
CAAM,3/23/09,-24.36989578,0.823234268,-25.97,-22.76,96,0
CAAM,3/24/09,-27.45760421,1.505984462,-30.12,-23.49,96,0
CAAM,3/25/09,-25.0163542,1.411958185,-28.12,-22.66,96,0
CAAM,3/26/09,-22.76906254,1.842188718,-25.35,-19.29,96,0
CAAM,3/27/09,-21.8403125,1.82313054,-25.28,-17.07,96,0
CAAM,3/28/09,-17.69510418,1.984561453,-21.55,-13.66,96,0
CAAM,3/29/09,-16.10885419,0.929452477,-17.98,-14.2,96,0
CAAM,3/30/09,-15.90374995,1.549923089,-19.85,-12.78,96,0
CAAM,3/31/09,-22.14843752,1.644330062,-25.59,-18.45,96,0
CAAM,4/1/09,-19.58427086,2.026252318,-25.83,-15.49,96,0
CAAM,4/2/09,-18.998125,0.867785113,-20.99,-16.94,96,0
CAAM,4/3/09,-17.86958329,1.231863784,-21.47,-16.03,96,0
CAAM,4/4/09,-22.09270837,1.009438098,-23.68,-19.97,96,0
CAAM,4/5/09,-18.55364585,2.741436896,-23.21,-13.62,96,0
CAAM,4/6/09,-18.6392709,3.376127193,-25.02,-13.23,96,0
CAAM,4/7/09,-15.09614584,1.425735888,-19.02,-13.04,96,0
CAAM,4/8/09,-19.78875007,1.924649156,-22.29,-13.88,96,0
CAAM,4/9/09,-21.6636458,1.021814766,-23.81,-19.63,96,0
CAAM,4/10/09,-18.30093746,3.517164285,-23.19,-13.23,96,0
CAAM,4/11/09,-18.27062491,2.492891653,-21.65,-12.78,96,0
CAAM,4/12/09,-15.69020836,3.590196556,-23.05,-10.51,96,0
CAAM,4/13/09,-9.958645831,0.494971766,-11,-8.76,96,0
CAAM,4/14/09,-14.16302087,2.690080492,-17.66,-9.94,96,0
CAAM,4/15/09,-17.82895827,1.041348838,-19.95,-16.32,96,0
CAAM,4/16/09,-23.27499992,2.101677548,-27.12,-19.16,96,0
CAAM,4/17/09,-25.36406257,1.922442855,-28.82,-20.97,96,0
CAAM,4/18/09,-24.86031236,1.848015486,-30.12,-21.81,96,0
CAAM,4/19/09,-22.37635419,5.492581871,-30.15,-14.97,96,0
CAAM,4/20/09,-11.73656252,1.898778996,-15.76,-8.83,96,0
CAAM,4/21/09,-14.56708327,2.958407062,-18.85,-9.7,96,0
CAAM,4/22/09,-14.31822913,2.212267242,-17.32,-9.93,96,0
CAAM,4/23/09,-12.70406247,1.505487188,-16.48,-11.4,96,0
CAAM,4/24/09,-12.00375,0.432009375,-13.21,-11.31,96,0
CAAM,4/25/09,-18.6248958,2.207051882,-21.2,-11.99,96,0
CAAM,4/26/09,-22.2502083,1.519703557,-25.01,-19.54,96,0
CAAM,4/27/09,-21.20875001,2.659538697,-27.25,-16.86,96,0
CAAM,4/28/09,-22.66770834,1.096274626,-24.73,-19.41,96,0
CAAM,4/29/09,-15.61416668,2.382167856,-20.47,-12.43,96,0
CAAM,4/30/09,-13.75697912,2.698796999,-17.59,-9.45,96,0
CAAM,5/1/09,-15.23447918,1.459337165,-18.6,-12.93,96,0
CAAM,5/2/09,-15.35385414,1.50555558,-19.9,-11.61,96,0
CAAM,5/3/09,-11.75552086,0.460971244,-12.82,-10.7,96,0
CAAM,5/4/09,-13.49520832,3.154151766,-20.5,-10.46,96,0
CAAM,5/5/09,-23.43822916,1.658589075,-26.98,-19.54,96,0
CAAM,5/6/09,-15.51927087,1.752047434,-22.95,-13.3,96,0
CAAM,5/7/09,-17.37739586,1.262649104,-20.9,-15.47,96,0
CAAM,5/8/09,-21.90437508,2.621137091,-26.08,-16.9,96,0
CAAM,5/9/09,-26.68916663,1.117495955,-29.31,-24.13,96,0
CAAM,5/10/09,-28.55187502,1.271046967,-31.11,-25.92,96,0
CAAM,5/11/09,-27.34812498,0.766928756,-29.01,-25.73,96,0
CAAM,5/12/09,-30.31666674,0.983259545,-32.63,-27.69,96,0
CAAM,5/13/09,-28.90239586,0.788709494,-30.33,-26.75,96,0
CAAM,5/14/09,-33.09239568,1.551281083,-35.72,-30.55,96,0
CAAM,5/15/09,-32.10479166,0.974870669,-34.62,-29.88,96,0
CAAM,5/16/09,-32.75927063,0.656650524,-34.29,-31.27,96,0
CAAM,5/17/09,-30.40645842,1.525775739,-33.5,-27.52,96,0
CAAM,5/18/09,-30.31083322,1.893266443,-33.68,-27.15,96,0
CAAM,5/19/09,-27.83791671,2.203545469,-34.34,-25.22,96,0
CAAM,5/20/09,-33.26499987,1.795650222,-35.87,-28.59,96,0
CAAM,5/21/09,-30.26187495,1.288295654,-34.09,-28.18,96,0
CAAM,5/22/09,-27.74142865,0.613600412,-28.66,-26.82,14,82
CAAM,5/23/09,,,,,0,84
CAAM,5/24/09,,,,,0,77
CAAM,5/25/09,,,,,0,88
CAAM,5/26/09,,,,,0,46
CAAM,6/13/09,,,,,0,77
CAAM,6/14/09,,,,,0,96
CAAM,6/15/09,,,,,0,91
CAAM,6/16/09,,,,,0,92
CAAM,6/17/09,,,,,0,94
CAAM,6/18/09,,,,,0,94
CAAM,6/19/09,,,,,0,96
CAAM,6/20/09,,,,,0,94
CAAM,6/21/09,,,,,0,94
CAAM,6/22/09,,,,,0,94
CAAM,6/23/09,,,,,0,95
CAAM,6/24/09,,,,,0,94
CAAM,6/25/09,,,,,0,94
CAAM,6/26/09,,,,,0,93
CAAM,6/27/09,,,,,0,95
CAAM,6/28/09,,,,,0,94
CAAM,6/29/09,,,,,0,96
CAAM,6/30/09,,,,,0,88
CAAM,7/1/09,,,,,0,95
CAAM,7/2/09,,,,,0,96
CAAM,7/3/09,,,,,0,95
CAAM,7/4/09,,,,,0,93
CAAM,7/5/09,,,,,0,93
CAAM,7/6/09,,,,,0,95
CAAM,7/7/09,,,,,0,95
CAAM,7/8/09,,,,,0,95
CAAM,7/9/09,,,,,0,94
CAAM,7/10/09,,,,,0,96
CAAM,7/11/09,,,,,0,96
CAAM,7/12/09,,,,,0,96
CAAM,7/13/09,,,,,0,96
CAAM,7/14/09,,,,,0,96
CAAM,7/15/09,,,,,0,94
CAAM,7/16/09,,,,,0,95
CAAM,7/17/09,,,,,0,95
CAAM,7/18/09,,,,,0,95
CAAM,7/19/09,,,,,0,95
CAAM,7/20/09,,,,,0,96
CAAM,7/21/09,,,,,0,96
CAAM,7/22/09,,,,,0,95
CAAM,7/23/09,,,,,0,94
CAAM,7/24/09,,,,,0,90
CAAM,7/25/09,,,,,0,96
CAAM,7/26/09,,,,,0,94
CAAM,7/27/09,,,,,0,96
CAAM,7/28/09,,,,,0,95
CAAM,7/29/09,,,,,0,96
CAAM,7/30/09,,,,,0,96
CAAM,7/31/09,,,,,0,96
CAAM,8/1/09,,,,,0,96
CAAM,8/2/09,,,,,0,96
CAAM,8/3/09,,,,,0,94
CAAM,8/4/09,,,,,0,95
CAAM,8/5/09,,,,,0,95
CAAM,8/6/09,,,,,0,96
CAAM,8/7/09,,,,,0,95
CAAM,8/8/09,,,,,0,96
CAAM,8/9/09,,,,,0,96
CAAM,8/10/09,,,,,0,96
CAAM,8/11/09,,,,,0,96
CAAM,8/12/09,,,,,0,96
CAAM,8/13/09,,,,,0,95
CAAM,8/14/09,,,,,0,96
CAAM,8/15/09,,,,,0,93
CAAM,8/16/09,,,,,0,96
CAAM,8/17/09,,,,,0,95
CAAM,8/18/09,,,,,0,96
CAAM,8/19/09,,,,,0,96
CAAM,8/20/09,,,,,0,96
CAAM,8/21/09,,,,,0,96
CAAM,8/22/09,,,,,0,96
CAAM,8/23/09,,,,,0,96
CAAM,8/24/09,,,,,0,96
CAAM,8/25/09,,,,,0,96
CAAM,8/26/09,,,,,0,96
CAAM,8/27/09,,,,,0,96
CAAM,8/28/09,,,,,0,96
CAAM,8/29/09,,,,,0,96
CAAM,8/30/09,,,,,0,95
CAAM,8/31/09,,,,,0,96
CAAM,9/1/09,,,,,0,96
CAAM,9/2/09,,,,,0,96
CAAM,9/3/09,,,,,0,96
CAAM,9/4/09,,,,,0,96
CAAM,9/5/09,,,,,0,80
CAAM,9/6/09,,,,,0,96
CAAM,9/7/09,,,,,0,86
CAAM,9/8/09,,,,,0,92
CAAM,9/9/09,,,,,0,77
CAAM,9/10/09,,,,,0,94
CAAM,9/11/09,,,,,0,78
CAAM,9/12/09,,,,,0,81
CAAM,9/13/09,,,,,0,85
CAAM,9/14/09,,,,,0,94
CAAM,9/15/09,,,,,0,88
CAAM,9/16/09,,,,,0,84
CAAM,9/17/09,,,,,0,88
CAAM,9/18/09,,,,,0,77
CAAM,9/19/09,,,,,0,81
CAAM,9/20/09,,,,,0,78
CAAM,9/21/09,,,,,0,74
CAAM,9/22/09,,,,,0,74
CAAM,9/23/09,,,,,0,82
CAAM,9/24/09,,,,,0,35
CAAM,11/13/09,-0.166315792,0.475482238,-1.24,0.59,38,0
CAAM,11/14/09,-0.846354159,2.317324275,-4.68,3.6,96,0
CAAM,11/15/09,-2.727708361,1.279772596,-4.55,0.65,96,0
CAAM,11/16/09,-1.925833335,2.251929552,-5.65,2.23,96,0
CAAM,11/17/09,-5.05354167,0.976938268,-7.13,-3.06,96,0
CAAM,11/18/09,-5.86666665,0.519679382,-6.9,-4.25,96,0
CAAM,11/19/09,-7.35885413,2.815936924,-13.44,-4.16,96,0
CAAM,11/20/09,-6.712916642,1.332880461,-10.06,-4.49,96,0
CAAM,11/21/09,-5.991666672,1.335633593,-8.95,-3.14,96,0
CAAM,11/22/09,-4.035,2.013312008,-6.84,-0.56,96,0
CAAM,11/23/09,-3.514583348,1.32968529,-6.13,-0.73,96,0
CAAM,11/24/09,-4.648437505,0.990907435,-6,-2.82,96,0
CAAM,11/25/09,-2.382812496,1.173396948,-6.08,-0.68,96,0
CAAM,11/26/09,-4.20875,0.845448789,-5.85,-2.23,96,0
CAAM,11/27/09,-4.329583334,1.118443402,-6.96,-2.26,96,0
CAAM,11/28/09,-5.181562496,0.947392369,-7.11,-3.13,96,0
CAAM,11/29/09,-4.206562503,0.832883177,-5.8,-0.38,96,0
CAAM,11/30/09,-3.173749994,0.95755309,-4.86,-0.65,96,0
CAAM,12/1/09,-2.849062511,1.88605636,-5.53,1.43,96,0
CAAM,12/2/09,-2.374166668,0.802910056,-4.08,-0.4,96,0
CAAM,12/3/09,-3.157708326,0.684236776,-4.59,-1.89,96,0
CAAM,12/4/09,-0.8990625,1.312383188,-3.26,1.44,96,0
CAAM,12/5/09,-1.769583335,1.356234667,-4.03,1.3,96,0
CAAM,12/6/09,-1.150000001,1.256705805,-3.76,2.27,96,0
CAAM,12/7/09,0.408958334,0.925904938,-1.14,2.49,96,0
CAAM,12/8/09,0.282916668,0.898646838,-1.13,2.77,96,0
CAAM,12/9/09,-4.476145837,2.288468745,-6.84,0.46,96,0
CAAM,12/10/09,-5.565416666,1.217043818,-7.51,-3.88,96,0
CAAM,12/11/09,-3.263020858,1.167483255,-4.88,-0.68,96,0
CAAM,12/12/09,-4.577708349,1.123103298,-6.29,-1.15,96,0
CAAM,12/13/09,-4.18927084,1.60582443,-6.58,-1.74,96,0
CAAM,12/14/09,-4.524791663,0.500614292,-5.43,-3.31,96,0
CAAM,12/15/09,-3.95281251,0.559739994,-4.93,-2.83,96,0
CAAM,12/16/09,-2.96572917,1.043887222,-4.98,-1.06,96,0
CAAM,12/17/09,-3.154375014,1.248175783,-5.63,-0.7,96,0
CAAM,12/18/09,-1.940625011,0.78473169,-3.6,0.38,96,0
CAAM,12/19/09,-2.705312512,2.064807365,-7.98,0.08,96,0
CAAM,12/20/09,-8.087187509,1.016118227,-9.4,-6.42,96,0
CAAM,12/21/09,-5.324687516,0.990267347,-6.73,-3.38,96,0
CAAM,12/22/09,-6.506770859,0.71675071,-7.6,-4.79,96,0
CAAM,12/23/09,-6.995208323,0.426592321,-8,-6.17,96,0
CAAM,12/24/09,-5.936041658,1.180038778,-8.01,-4.29,96,0
CAAM,12/25/09,-5.498749981,0.630782716,-6.68,-4.51,96,0
CAAM,12/26/09,-5.011249992,1.600076476,-8.62,-2.99,96,0
CAAM,12/27/09,-3.140104162,1.312871881,-5.53,-1.02,96,0
CAAM,12/28/09,-3.840416686,0.784971919,-5.15,-1.91,96,0
CAAM,12/29/09,-3.472083338,1.048027647,-5.62,-1.97,96,0
CAAM,12/30/09,-3.485729165,0.946699219,-5.24,-2.14,96,0
CAAM,12/31/09,-1.980104165,0.642237036,-3.24,-0.13,96,0
CAAM,1/1/10,-1.535104164,1.276979984,-3.6,0.45,96,0
CAAM,1/2/10,-0.909895833,0.545840721,-2.08,0.81,96,0
CAAM,1/3/10,-3.676979173,1.846844317,-7.37,-1.18,96,0
CAAM,1/4/10,-8.238125031,0.550238846,-9.15,-7.26,96,0
CAAM,1/5/10,-5.400208332,2.465058132,-8.97,-1.26,96,0
CAAM,1/6/10,-6.281458328,1.121811478,-7.8,-2.89,96,0
CAAM,1/7/10,-5.141145855,1.074711085,-6.67,-2.34,96,0
CAAM,1/8/10,-2.878020834,1.281232644,-5.03,0.18,96,0
CAAM,1/9/10,-2.753645831,0.832390497,-4.33,-1.4,96,0
CAAM,1/10/10,-3.471770843,0.62080933,-4.88,-2.41,96,0
CAAM,1/11/10,-3.609374983,0.860963728,-5.62,-2.37,96,0
CAAM,1/12/10,-2.815312505,0.901648736,-4.55,-1.1,96,0
CAAM,1/13/10,-4.697916687,0.629709901,-5.61,-2.89,96,0
CAAM,1/14/10,-4.970416675,1.008498534,-6.77,-3.13,96,0
CAAM,1/15/10,-3.181458318,0.914392483,-4.97,-1.3,96,0
CAAM,1/16/10,-2.667395838,1.414505493,-4.97,0.69,96,0
CAAM,1/17/10,-1.777291677,1.034601871,-3.77,-0.03,96,0
CAAM,1/18/10,-4.602708348,0.998226285,-6.18,-1.93,96,0
CAAM,1/19/10,-4.025624992,1.764064567,-7.22,-1.01,96,0
CAAM,1/20/10,-2.75729166,0.646915731,-4.06,-1.36,96,0
CAAM,1/21/10,-2.328541671,1.350006615,-5.09,0.64,96,0
CAAM,1/22/10,-1.321770833,1.517697006,-3.7,1.67,96,0
CAAM,1/23/10,-3.45197917,0.806804748,-5.72,-1.79,96,0
CAAM,1/24/10,-4.968750017,1.684249181,-7.67,-2.59,96,0
CAAM,1/25/10,-3.296875007,0.871103726,-5.04,-1.47,96,0
CAAM,1/26/10,-5.414791661,0.875038643,-6.92,-3.87,96,0
CAAM,1/27/10,-3.208854162,1.666376372,-5.97,-0.41,96,0
CAAM,1/28/10,-5.658229155,2.132691396,-9.53,-2.88,96,0
CAAM,1/29/10,-8.859999657,0,-8.86,-8.86,96,96
CAAM,1/30/10,-8.859999657,0,-8.86,-8.86,96,96
CAAM,1/31/10,-8.859999657,0,-8.86,-8.86,96,96
CAAM,2/1/10,-8.859999657,0,-8.86,-8.86,96,96
CAAM,2/2/10,-8.859999657,0,-8.86,-8.86,96,96
CAAM,2/3/10,-8.859999657,0,-8.86,-8.86,96,96
CAAM,2/4/10,-8.859999657,0,-8.86,-8.86,96,96
CAAM,2/5/10,-8.859999657,0,-8.86,-8.86,96,96
CAAM,2/6/10,-8.859999657,0,-8.86,-8.86,96,96
CAAM,2/7/10,-8.859999657,0,-8.86,-8.86,96,96
CAAM,2/8/10,-8.859999657,0,-8.86,-8.86,96,96
CAAM,2/9/10,-8.859999657,0,-8.86,-8.86,96,96
CAAM,2/10/10,-8.859999657,0,-8.86,-8.86,96,96
CAAM,2/11/10,-8.859999657,0,-8.86,-8.86,96,96
CAAM,2/12/10,-8.859999657,0,-8.86,-8.86,96,96
CAAM,2/13/10,-8.859999657,0,-8.86,-8.86,96,96
CAAM,2/14/10,-8.859999657,0,-8.86,-8.86,96,96
CAAM,2/15/10,-8.859999657,0,-8.86,-8.86,96,96
CAAM,2/16/10,-8.859999657,0,-8.86,-8.86,96,96
CAAM,2/17/10,-8.859999657,0,-8.86,-8.86,96,96
CAAM,2/18/10,-8.859999657,0,-8.86,-8.86,96,96
CAAM,2/19/10,-8.859999657,0,-8.86,-8.86,96,96
CAAM,2/20/10,-8.859999657,0,-8.86,-8.86,96,96
CAAM,2/21/10,-8.859999657,0,-8.86,-8.86,96,96
CAAM,2/22/10,-8.859999657,0,-8.86,-8.86,96,96
CAAM,2/23/10,-8.859999657,0,-8.86,-8.86,96,96
CAAM,2/24/10,-8.859999657,0,-8.86,-8.86,96,96
CAAM,2/25/10,-8.859999657,0,-8.86,-8.86,96,96
CAAM,2/26/10,-8.859999657,0,-8.86,-8.86,96,96
CAAM,2/27/10,-8.859999657,0,-8.86,-8.86,96,96
CAAM,2/28/10,-8.859999657,0,-8.86,-8.86,96,96
CAAM,3/1/10,-8.859999657,0,-8.86,-8.86,96,96
CAAM,3/2/10,-8.859999657,0,-8.86,-8.86,96,96
CAAM,3/3/10,-8.859999657,0,-8.86,-8.86,96,96
CAAM,3/4/10,-8.859999657,0,-8.86,-8.86,96,96
CAAM,3/5/10,-8.859999657,0,-8.86,-8.86,96,96
CAAM,3/6/10,-8.859999657,0,-8.86,-8.86,96,96
CAAM,3/7/10,-8.859999657,0,-8.86,-8.86,96,96
CAAM,3/8/10,-8.859999657,0,-8.86,-8.86,96,96
CAAM,3/9/10,-8.859999657,0,-8.86,-8.86,96,96
CAAM,3/10/10,-8.859999657,0,-8.86,-8.86,96,96
CAAM,3/11/10,-8.859999657,0,-8.86,-8.86,96,96